OPS 4682 DEB, 18964

Orbit data source: Space-Track

OPS 4682 DEB, 18964 is space debris in LEO originally from a launch on Sat, 03 Apr 1965 UTC launched from the Air Force Western Test Range (AFWTR). Debris objects in space refer to the collection of defunct objects orbiting the Earth. Examples of debris include non-operational satellites, rocket bodies, and fragments generated from explosions, collisions, or faulty payload assembly.

Loading next visibility...
Identifier
18964, 1965-027AM
Orbit
LEO
Country
Flag of USUS
Related business
Manufacturer
Unknown
Mission
Spacecraft
Bus & Motor
Unknown
Mass
Unknown
Launch date (UTC)
1965-04-03 (61 years ago)
Launch vehicle
Unknown
Launch site
Air Force Western Test Range (AFWTR)
Object type
Payload
Rocket body
Debris
Shape & HBR
Unknown shape, 0.1 m
Radar Cross Section
Medium (>0.1 m² and <1 m²)

Expand to show TLE details & history
Last TLE update: 1 day ago

TLE from 1 day ago
0 OPS 4682 DEB
1 18964U 65027AM  26174.97289472 -.00000081  00000-0 -30538-3 0  9999
2 18964  90.2419   0.0426 0034793  88.4008  64.9141 12.97809815856342
Epoch: 2026-06-23T23:20Z
TLE epoch observation values (Epoch: 2026-06-23T23:20:58.103Z)
Latitude
26.35434°
Longitude
-82.21704°
Altitude
1,262.674 km
Speed
7.232 km/s
True Right ascension
12h 00m 38s
True Declination
26° 13' 37"
Sunlit
Object was in daylight at epoch
Visualization orbit readout
Latitude
Unknown
Longitude
Unknown
Altitude
Unknown
Speed
Unknown
Apparent Right ascension
Unknown
Apparent Declination
Unknown
Sunlit
N/A
Visualization observer readout
Local Sidereal Time
12:01:53
Azimuth
Unknown
Elevation
Unknown
Doppler factor
Unknown
Orbital elements
Apogee altitude
1,294.413 km
Perigee altitude
1,241.208 km
Semi-major axis
7,645.947 km
Eccentricity
0.00348
Inclination
90.2419°
RAAN
0.0426°
Arg. of periapsis
88.4008°
True anomaly
65.27586°
Mean anomaly
64.9141°
Eccentric anomaly
65.09491°
Mean motion
3.24636 °/min
Orbital period
110.89 mins
BSTAR
-0.00030538
Loading maneuver chart data...
Computing Atmospheric mass density...
Loading historical data...
Loading historical data...
Loading historical data...
Loading historical data...
Loading historical data...
Loading historical data...
Loading historical data...

Documentation

Showing up to 5 results
|